| time (UTC) | temp C | wind direction | speed KPH | gust KPH | rain 1hr cm | rain 24hr cm | rain mn cm | humidity % | barometer mb |
| 20260902035650 | 18 | 303 | 1.6 | 3.2 | 0.00 | 0.00 | 0.00 | 74 | |
| 20260902035450 | 18 | 306 | 1.6 | 3.2 | 0.00 | 0.00 | 0.00 | 74 | |
| 20260902035248 | 18 | 277 | 0.0 | 3.2 | 0.00 | 0.00 | 0.00 | 74 | |
| 20260902035046 | 18 | 296 | 1.6 | 8.0 | 0.00 | 0.00 | 0.00 | 74 | |
| 20260902034844 | 18 | 296 | 1.6 | 8.0 | 0.00 | 0.00 | 0.00 | 74 | |
| 20260902034640 | 18 | 295 | 3.2 | 8.0 | 0.00 | 0.00 | 0.00 | 74 | |
| 20260902034438 | 18 | 293 | 4.8 | 8.0 | 0.00 | 0.00 | 0.00 | 74 | |
| 20260902034238 | 18 | 293 | 3.2 | 0.0 | 0.00 | 0.00 | 0.00 | 73 | |
| 20260902034036 | 18 | 286 | 3.2 | 0.0 | 0.00 | 0.00 | 0.00 | 73 | |
| 20260902033835 | 18 | 285 | 3.2 | 0.0 | 0.00 | 0.00 | 0.00 | 73 | |
| 20260902033631 | 18 | 260 | 0.0 | 0.0 | 0.00 | 0.00 | 0.00 | 72 | |
| 20260902033429 | 19 | 260 | 0.0 | 0.0 | 0.00 | 0.00 | 0.00 | 71 | |
| 20260902033229 | 19 | 260 | 0.0 | 0.0 | 0.00 | 0.00 | 0.00 | 70 | |
| 20260902033027 | 19 | 260 | 0.0 | 0.0 | 0.00 | 0.00 | 0.00 | 70 | |
| 20260902032823 | 19 | 260 | 0.0 | 0.0 | 0.00 | 0.00 | 0.00 | 70 | |
| 20260902032621 | 19 | 260 | 0.0 | 1.6 | 0.00 | 0.00 | 0.00 | 69 | |
| 20260902032217 | 19 | 257 | 0.0 | 3.2 | 0.00 | 0.00 | 0.00 | 68 | |
| 20260902032016 | 19 | 257 | 0.0 | 3.2 | 0.00 | 0.00 | 0.00 | 68 | |
| 20260902031612 | 20 | 265 | 0.0 | 0.0 | 0.00 | 0.00 | 0.00 | 68 | |
| 20260902031410 | 19 | 257 | 0.0 | 0.0 | 0.00 | 0.00 | 0.00 | 67 | |
| 20260902031208 | 20 | 257 | 0.0 | 0.0 | 0.00 | 0.00 | 0.00 | 67 | |
| 20260902031008 | 20 | 257 | 0.0 | 0.0 | 0.00 | 0.00 | 0.00 | 67 | |
| 20260902030806 | 20 | 257 | 0.0 | 0.0 | 0.00 | 0.00 | 0.00 | 66 | |
| 20260902030602 | 20 | 257 | 0.0 | 0.0 | 0.00 | 0.00 | 0.00 | 66 | |
| 20260902030400 | 20 | 257 | 0.0 | 0.0 | 0.00 | 0.00 | 0.00 | 66 | |
| 20260902030158 | 20 | 257 | 0.0 | 0.0 | 0.00 | 0.00 | 0.00 | 66 | |
| 20260902025957 | 20 | 257 | 0.0 | 0.0 | 0.00 | 0.00 | 0.00 | 65 | |
| 20260902025756 | 20 | 257 | 0.0 | 0.0 | 0.00 | 0.00 | 0.00 | 65 | |
| 20260902025554 | 20 | 257 | 0.0 | 0.0 | 0.00 | 0.00 | 0.00 | 65 | |
| 20260902025351 | 20 | 257 | 0.0 | 0.0 | 0.00 | 0.00 | 0.00 | 64 | |
| 20260902025149 | 20 | 257 | 0.0 | 8.0 | 0.00 | 0.00 | 0.00 | 64 | |
| 20260902024947 | 20 | 257 | 0.0 | 8.0 | 0.00 | 0.00 | 0.00 | 64 | |
| 20260902024745 | 20 | 257 | 0.0 | 4.8 | 0.00 | 0.00 | 0.00 | 63 | |
| 20260902024543 | 20 | 257 | 0.0 | 4.8 | 0.00 | 0.00 | 0.00 | 63 | |
| 20260902024341 | 20 | 296 | 0.0 | 4.8 | 0.00 | 0.00 | 0.00 | 63 | |
| 20260902024140 | 20 | 288 | 3.2 | 4.8 | 0.00 | 0.00 | 0.00 | 62 | |
| 20260902023737 | 20 | 250 | 0.0 | 4.8 | 0.00 | 0.00 | 0.00 | 61 | |
| 20260902023533 | 21 | 250 | 0.0 | 4.8 | 0.00 | 0.00 | 0.00 | 60 | |
| 20260902023333 | 21 | 250 | 0.0 | 4.8 | 0.00 | 0.00 | 0.00 | 60 | |
| 20260902022929 | 21 | 275 | 4.8 | 11.3 | 0.00 | 0.00 | 0.00 | 59 | |
| 20260902022725 | 21 | 286 | 3.2 | 9.7 | 0.00 | 0.00 | 0.00 | 58 | |
| 20260902022524 | 21 | 282 | 3.2 | 9.7 | 0.00 | 0.00 | 0.00 | 58 | |
| 20260902022322 | 21 | 298 | 1.6 | 9.7 | 0.00 | 0.00 | 0.00 | 57 | |
| 20260902022120 | 21 | 285 | 3.2 | 9.7 | 0.00 | 0.00 | 0.00 | 57 | |
| 20260902021918 | 21 | 272 | 6.4 | 9.7 | 0.00 | 0.00 | 0.00 | 57 | |
| 20260902021716 | 21 | 288 | 6.4 | 11.3 | 0.00 | 0.00 | 0.00 | 56 | |
| 20260902021515 | 22 | 281 | 6.4 | 11.3 | 0.00 | 0.00 | 0.00 | 56 | |
| 20260902021312 | 22 | 260 | 0.0 | 11.3 | 0.00 | 0.00 | 0.00 | 55 | |
| 20260902021112 | 22 | 267 | 8.0 | 12.9 | 0.00 | 0.00 | 0.00 | 55 | |
| 20260902020909 | 22 | 255 | 6.4 | 12.9 | 0.00 | 0.00 | 0.00 | 55 | |
| 20260902020708 | 22 | 264 | 8.0 | 14.5 | 0.00 | 0.00 | 0.00 | 55 | |
| 20260902020303 | 22 | 267 | 8.0 | 14.5 | 0.00 | 0.00 | 0.00 | 54 | |
| 20260902015900 | 22 | 279 | 8.0 | 14.5 | 0.00 | 0.00 | 0.00 | 54 | |
| 20260902015658 | 22 | 264 | 11.3 | 12.9 | 0.00 | 0.00 | 0.00 | 53 | |
| 20260902015456 | 22 | 275 | 9.7 | 12.9 | 0.00 | 0.00 | 0.00 | 53 | |
| 20260902015253 | 22 | 285 | 9.7 | 12.9 | 0.00 | 0.00 | 0.00 | 53 | |
| 20260902015052 | 22 | 271 | 9.7 | 12.9 | 0.00 | 0.00 | 0.00 | 53 | |
| 20260902014850 | 22 | 272 | 9.7 | 12.9 | 0.00 | 0.00 | 0.00 | 53 | |
| 20260902014646 | 23 | 260 | 4.8 | 12.9 | 0.00 | 0.00 | 0.00 | 53 | |
| 20260902014444 | 23 | 274 | 8.0 | 12.9 | 0.00 | 0.00 | 0.00 | 53 | |
| 20260902014242 | 23 | 282 | 8.0 | 14.5 | 0.00 | 0.00 | 0.00 | 53 | |
| 20260902014042 | 23 | 286 | 6.4 | 14.5 | 0.00 | 0.00 | 0.00 | 53 | |
| 20260902013841 | 23 | 274 | 9.7 | 14.5 | 0.00 | 0.00 | 0.00 | 53 | |
| 20260902013638 | 23 | 282 | 6.4 | 14.5 | 0.00 | 0.00 | 0.00 | 53 | |
| 20260902013435 | 23 | 277 | 12.9 | 14.5 | 0.00 | 0.00 | 0.00 | 52 | |
| 20260902013234 | 23 | 265 | 11.3 | 12.9 | 0.00 | 0.00 | 0.00 | 52 | |
| 20260902013032 | 23 | 285 | 12.9 | 12.9 | 0.00 | 0.00 | 0.00 | 51 | |
| 20260902012830 | 23 | 271 | 6.4 | 12.9 | 0.00 | 0.00 | 0.00 | 52 | |
| 20260902012627 | 23 | 286 | 8.0 | 14.5 | 0.00 | 0.00 | 0.00 | 52 | |
| 20260902012425 | 23 | 286 | 8.0 | 14.5 | 0.00 | 0.00 | 0.00 | 52 | |
| 20260902012224 | 23 | 271 | 3.2 | 14.5 | 0.00 | 0.00 | 0.00 | 52 | |
| 20260902012030 | 23 | 268 | 12.9 | 14.5 | 0.00 | 0.00 | 0.00 | 52 | |
| 20260902012022 | 23 | 268 | 12.9 | 14.5 | 0.00 | 0.00 | 0.00 | 52 | |
| 20260902011821 | 23 | 272 | 11.3 | 14.5 | 0.00 | 0.00 | 0.00 | 52 | |
| 20260902011618 | 23 | 271 | 6.4 | 12.9 | 0.00 | 0.00 | 0.00 | 52 | |
| 20260902011417 | 23 | 265 | 12.9 | 12.9 | 0.00 | 0.00 | 0.00 | 51 | |
| 20260902011215 | 23 | 264 | 9.7 | 16.1 | 0.00 | 0.00 | 0.00 | 52 | |
| 20260902010810 | 23 | 286 | 6.4 | 16.1 | 0.00 | 0.00 | 0.00 | 52 | |
| 20260902010612 | 23 | 278 | 9.7 | 17.7 | 0.00 | 0.00 | 0.00 | 52 | |
| 20260902010608 | 23 | 278 | 9.7 | 17.7 | 0.00 | 0.00 | 0.00 | 52 | |
| 20260902010405 | 23 | 298 | 6.4 | 17.7 | 0.00 | 0.00 | 0.00 | 53 | |
| 20260902010205 | 23 | 261 | 8.0 | 14.5 | 0.00 | 0.00 | 0.00 | 53 | |
| 20260902005759 | 23 | 281 | 9.7 | 14.5 | 0.00 | 0.00 | 0.00 | 52 | |
| 20260902005557 | 23 | 316 | 6.4 | 16.1 | 0.00 | 0.00 | 0.00 | 52 | |
| 20260902005355 | 23 | 278 | 12.9 | 16.1 | 0.00 | 0.00 | 0.00 | 51 | |
| 20260902005153 | 23 | 244 | 1.6 | 14.5 | 0.00 | 0.00 | 0.00 | 52 | |
| 20260902004953 | 23 | 274 | 6.4 | 14.5 | 0.00 | 0.00 | 0.00 | 52 | |
| 20260902004751 | 23 | 262 | 12.9 | 14.5 | 0.00 | 0.00 | 0.00 | 52 | |
| 20260902004547 | 24 | 285 | 9.7 | 16.1 | 0.00 | 0.00 | 0.00 | 52 | |
| 20260902004346 | 24 | 272 | 8.0 | 16.1 | 0.00 | 0.00 | 0.00 | 52 | |
| 20260902004144 | 23 | 253 | 9.7 | 17.7 | 0.00 | 0.00 | 0.00 | 52 | |
| 20260902003943 | 23 | 272 | 4.8 | 17.7 | 0.00 | 0.00 | 0.00 | 53 | |
| 20260902003740 | 24 | 274 | 12.9 | 19.3 | 0.00 | 0.00 | 0.00 | 52 | |
| 20260902003538 | 23 | 279 | 11.3 | 19.3 | 0.00 | 0.00 | 0.00 | 52 | |
| 20260902003336 | 23 | 278 | 9.7 | 19.3 | 0.00 | 0.00 | 0.00 | 52 | |
| 20260902003134 | 23 | 274 | 8.0 | 17.7 | 0.00 | 0.00 | 0.00 | 53 | |
| 20260902002932 | 23 | 289 | 11.3 | 17.7 | 0.00 | 0.00 | 0.00 | 53 | |
| 20260902002326 | 24 | 272 | 11.3 | 17.7 | 0.00 | 0.00 | 0.00 | 52 | |
| 20260902002124 | 24 | 264 | 9.7 | 19.3 | 0.00 | 0.00 | 0.00 | 51 | |
| 20260902001923 | 24 | 296 | 8.0 | 19.3 | 0.00 | 0.00 | 0.00 | 52 | |
| 20260902001720 | 24 | 261 | 11.3 | 19.3 | 0.00 | 0.00 | 0.00 | 52 | |
| 20260902001518 | 24 | 272 | 14.5 | 19.3 | 0.00 | 0.00 | 0.00 | 52 | |
| 20260902001316 | 24 | 286 | 12.9 | 19.3 | 0.00 | 0.00 | 0.00 | 52 | |
| 20260902001116 | 25 | 247 | 12.9 | 16.1 | 0.00 | 0.00 | 0.00 | 51 | |
| 20260902000912 | 25 | 279 | 8.0 | 16.1 | 0.00 | 0.00 | 0.00 | 51 | |
| 20260902000712 | 24 | 277 | 9.7 | 20.9 | 0.00 | 0.00 | 0.00 | 52 | |
| 20260902000508 | 25 | 284 | 8.0 | 20.9 | 0.00 | 0.00 | 0.00 | 52 | |
| 20260902000308 | 24 | 277 | 4.8 | 20.9 | 0.00 | 0.00 | 0.00 | 52 | |
| 20260902000104 | 24 | 251 | 8.0 | 20.9 | 0.00 | 0.00 | 0.00 | 53 | |
| 20260901235904 | 23 | 279 | 14.5 | 20.9 | 0.00 | 0.00 | 0.00 | 52 | |
| 20260901235701 | 24 | 241 | 17.7 | 24.1 | 0.00 | 0.00 | 0.00 | 52 | |
| 20260901235500 | 24 | 271 | 8.0 | 24.1 | 0.00 | 0.00 | 0.00 | 52 | |
| 20260901235257 | 24 | 282 | 11.3 | 24.1 | 0.00 | 0.00 | 0.00 | 53 | |
| 20260901235056 | 24 | 250 | 11.3 | 24.1 | 0.00 | 0.00 | 0.00 | 54 | |
| 20260901234853 | 23 | 261 | 14.5 | 24.1 | 0.00 | 0.00 | 0.00 | 53 | |
| 20260901234652 | 23 | 289 | 14.5 | 20.9 | 0.00 | 0.00 | 0.00 | 53 | |
| 20260901234449 | 23 | 293 | 9.7 | 20.9 | 0.00 | 0.00 | 0.00 | 53 | |
| 20260901234247 | 24 | 265 | 14.5 | 20.9 | 0.00 | 0.00 | 0.00 | 52 | |
| 20260901234045 | 24 | 248 | 8.0 | 20.9 | 0.00 | 0.00 | 0.00 | 53 | |
| 20260901233845 | 24 | 261 | 12.9 | 20.9 | 0.00 | 0.00 | 0.00 | 53 | |
| 20260901233641 | 24 | 284 | 11.3 | 20.9 | 0.00 | 0.00 | 0.00 | 52 | |
| 20260901233441 | 24 | 275 | 11.3 | 20.9 | 0.00 | 0.00 | 0.00 | 52 | |
| 20260901233035 | 25 | 258 | 14.5 | 20.9 | 0.00 | 0.00 | 0.00 | 52 | |
| 20260901232835 | 25 | 271 | 11.3 | 20.9 | 0.00 | 0.00 | 0.00 | 52 | |
| 20260901232631 | 24 | 271 | 12.9 | 22.5 | 0.00 | 0.00 | 0.00 | 52 | |
| 20260901232429 | 24 | 275 | 16.1 | 22.5 | 0.00 | 0.00 | 0.00 | 52 | |
| 20260901232227 | 24 | 260 | 19.3 | 22.5 | 0.00 | 0.00 | 0.00 | 52 | |
| 20260901232027 | 25 | 268 | 14.5 | 22.5 | 0.00 | 0.00 | 0.00 | 51 | |
| 20260901231825 | 25 | 198 | 6.4 | 22.5 | 0.00 | 0.00 | 0.00 | 52 | |
| 20260901231621 | 25 | 255 | 20.9 | 22.5 | 0.00 | 0.00 | 0.00 | 52 | |
| 20260901231421 | 25 | 258 | 17.7 | 22.5 | 0.00 | 0.00 | 0.00 | 51 | |
| 20260901231017 | 25 | 271 | 0.0 | 19.3 | 0.00 | 0.00 | 0.00 | 51 | |
| 20260901230815 | 25 | 222 | 1.6 | 19.3 | 0.00 | 0.00 | 0.00 | 51 | |
| 20260901230411 | 25 | 268 | 19.3 | 20.9 | 0.00 | 0.00 | 0.00 | 51 | |
| 20260901230210 | 25 | 258 | 8.0 | 17.7 | 0.00 | 0.00 | 0.00 | 51 | |
| 20260901230006 | 25 | 258 | 12.9 | 17.7 | 0.00 | 0.00 | 0.00 | 51 | |
| 20260901225805 | 25 | 248 | 14.5 | 17.7 | 0.00 | 0.00 | 0.00 | 50 | |
| 20260901225602 | 25 | 230 | 8.0 | 24.1 | 0.00 | 0.00 | 0.00 | 51 | |
| 20260901225402 | 25 | 258 | 12.9 | 24.1 | 0.00 | 0.00 | 0.00 | 51 | |
| 20260901225200 | 25 | 203 | 1.6 | 22.5 | 0.00 | 0.00 | 0.00 | 51 | |
| 20260901224957 | 25 | 241 | 17.7 | 22.5 | 0.00 | 0.00 | 0.00 | 51 | |
| 20260901224756 | 25 | 267 | 4.8 | 22.5 | 0.00 | 0.00 | 0.00 | 51 | |
| 20260901224554 | 25 | 270 | 9.7 | 24.1 | 0.00 | 0.00 | 0.00 | 51 | |
| 20260901224352 | 25 | 229 | 9.7 | 24.1 | 0.00 | 0.00 | 0.00 | 51 | |
| 20260901224151 | 25 | 281 | 14.5 | 20.9 | 0.00 | 0.00 | 0.00 | 51 | |
| 20260901223948 | 25 | 192 | 1.6 | 20.9 | 0.00 | 0.00 | 0.00 | 52 | |
| 20260901223749 | 25 | 199 | 8.0 | 25.7 | 0.00 | 0.00 | 0.00 | 52 | |
| 20260901223543 | 25 | 258 | 14.5 | 25.7 | 0.00 | 0.00 | 0.00 | 52 | |
| 20260901223342 | 25 | 251 | 14.5 | 25.7 | 0.00 | 0.00 | 0.00 | 52 | |
| 20260901223141 | 25 | 264 | 12.9 | 27.4 | 0.00 | 0.00 | 0.00 | 52 | |
| 20260901222937 | 25 | 264 | 20.9 | 27.4 | 0.00 | 0.00 | 0.00 | 51 | |
| 20260901222736 | 25 | 251 | 16.1 | 30.6 | 0.00 | 0.00 | 0.00 | 51 | |
| 20260901222534 | 25 | 253 | 14.5 | 30.6 | 0.00 | 0.00 | 0.00 | 51 | |
| 20260901222333 | 25 | 262 | 14.5 | 30.6 | 0.00 | 0.00 | 0.00 | 51 | |
| 20260901221727 | 25 | 243 | 17.7 | 25.7 | 0.00 | 0.00 | 0.00 | 50 | |
| 20260901221523 | 25 | 271 | 9.7 | 25.7 | 0.00 | 0.00 | 0.00 | 49 | |
| 20260901221323 | 25 | 262 | 17.7 | 25.7 | 0.00 | 0.00 | 0.00 | 49 | |
| 20260901221121 | 25 | 282 | 16.1 | 24.1 | 0.00 | 0.00 | 0.00 | 50 | |
| 20260901220920 | 25 | 268 | 14.5 | 24.1 | 0.00 | 0.00 | 0.00 | 48 | |
| 20260901220717 | 25 | 232 | 17.7 | 25.7 | 0.00 | 0.00 | 0.00 | 49 | |
| 20260901220513 | 26 | 264 | 17.7 | 25.7 | 0.00 | 0.00 | 0.00 | 50 | |
| 20260901220313 | 25 | 275 | 8.0 | 25.7 | 0.00 | 0.00 | 0.00 | 50 | |
| 20260901220116 | 25 | 265 | 12.9 | 24.1 | 0.00 | 0.00 | 0.00 | 50 | |
| 20260901220111 | 25 | 265 | 12.9 | 24.1 | 0.00 | 0.00 | 0.00 | 50 | |
| 20260901215909 | 25 | 285 | 17.7 | 24.1 | 0.00 | 0.00 | 0.00 | 50 | |
| 20260901215707 | 25 | 257 | 17.7 | 25.7 | 0.00 | 0.00 | 0.00 | 50 | |
| 20260901215306 | 25 | 272 | 12.9 | 25.7 | 0.00 | 0.00 | 0.00 | 51 | |
| 20260901215102 | 25 | 262 | 12.9 | 22.5 | 0.00 | 0.00 | 0.00 | 51 | |
| 20260901214900 | 25 | 247 | 24.1 | 22.5 | 0.00 | 0.00 | 0.00 | 51 | |
| 20260901214456 | 25 | 260 | 20.9 | 29.0 | 0.00 | 0.00 | 0.00 | 52 | |
| 20260901214254 | 25 | 246 | 16.1 | 29.0 | 0.00 | 0.00 | 0.00 | 52 | |
| 20260901214050 | 25 | 272 | 22.5 | 27.4 | 0.00 | 0.00 | 0.00 | 52 | |
| 20260901213850 | 25 | 270 | 24.1 | 27.4 | 0.00 | 0.00 | 0.00 | 51 | |
| 20260901213648 | 25 | 251 | 19.3 | 27.4 | 0.00 | 0.00 | 0.00 | 50 | |
| 20260901213446 | 25 | 255 | 11.3 | 27.4 | 0.00 | 0.00 | 0.00 | 51 | |
| 20260901213244 | 25 | 246 | 19.3 | 25.7 | 0.00 | 0.00 | 0.00 | 51 | |
| 20260901213042 | 25 | 265 | 14.5 | 25.7 | 0.00 | 0.00 | 0.00 | 51 | |
| 20260901212840 | 25 | 254 | 20.9 | 25.7 | 0.00 | 0.00 | 0.00 | 51 | |
| 20260901212638 | 25 | 262 | 16.1 | 25.7 | 0.00 | 0.00 | 0.00 | 51 | |
| 20260901212436 | 25 | 279 | 19.3 | 25.7 | 0.00 | 0.00 | 0.00 | 51 | |
| 20260901212234 | 25 | 268 | 20.9 | 24.1 | 0.00 | 0.00 | 0.00 | 50 | |
| 20260901212032 | 26 | 265 | 24.1 | 24.1 | 0.00 | 0.00 | 0.00 | 49 | |
| 20260901211830 | 26 | 260 | 16.1 | 24.1 | 0.00 | 0.00 | 0.00 | 50 | |
| 20260901211628 | 25 | 264 | 12.9 | 32.2 | 0.00 | 0.00 | 0.00 | 50 | |
| 20260901211426 | 26 | 272 | 14.5 | 32.2 | 0.00 | 0.00 | 0.00 | 51 | |
| 20260901211225 | 26 | 261 | 14.5 | 27.4 | 0.00 | 0.00 | 0.00 | 51 | |
| 20260901211023 | 25 | 265 | 12.9 | 27.4 | 0.00 | 0.00 | 0.00 | 51 | |
| 20260901210618 | 25 | 278 | 22.5 | 27.4 | 0.00 | 0.00 | 0.00 | 51 | |
| 20260901210417 | 25 | 291 | 9.7 | 27.4 | 0.00 | 0.00 | 0.00 | 51 | |
| 20260901210213 | 25 | 247 | 8.0 | 29.0 | 0.00 | 0.00 | 0.00 | 51 | |
| 20260901210011 | 25 | 267 | 22.5 | 29.0 | 0.00 | 0.00 | 0.00 | 51 | |
| 20260901205811 | 25 | 265 | 20.9 | 29.0 | 0.00 | 0.00 | 0.00 | 51 | |
| 20260901205609 | 26 | 232 | 20.9 | 24.1 | 0.00 | 0.00 | 0.00 | 49 | |
| 20260901205407 | 26 | 271 | 12.9 | 24.1 | 0.00 | 0.00 | 0.00 | 50 | |
| 20260901205003 | 26 | 261 | 9.7 | 27.4 | 0.00 | 0.00 | 0.00 | 50 | |
| 20260901204759 | 25 | 277 | 6.4 | 27.4 | 0.00 | 0.00 | 0.00 | 51 | |
| 20260901204559 | 25 | 271 | 20.9 | 27.4 | 0.00 | 0.00 | 0.00 | 51 | |
| 20260901204357 | 25 | 267 | 20.9 | 27.4 | 0.00 | 0.00 | 0.00 | 50 | |
| 20260901204156 | 26 | 234 | 12.9 | 24.1 | 0.00 | 0.00 | 0.00 | 50 | |
| 20260901203952 | 26 | 285 | 16.1 | 24.1 | 0.00 | 0.00 | 0.00 | 49 | |
| 20260901203347 | 26 | 268 | 12.9 | 20.9 | 0.00 | 0.00 | 0.00 | 49 | |
| 20260901203145 | 26 | 264 | 16.1 | 24.1 | 0.00 | 0.00 | 0.00 | 49 | |
| 20260901202943 | 26 | 279 | 11.3 | 24.1 | 0.00 | 0.00 | 0.00 | 48 | |
| 20260901202740 | 26 | 261 | 9.7 | 24.1 | 0.00 | 0.00 | 0.00 | 49 | |
| 20260901202338 | 26 | 293 | 11.3 | 24.1 | 0.00 | 0.00 | 0.00 | 48 | |
| 20260901201934 | 26 | 261 | 16.1 | 22.5 | 0.00 | 0.00 | 0.00 | 47 | |
| 20260901201732 | 26 | 278 | 11.3 | 24.1 | 0.00 | 0.00 | 0.00 | 46 | |
| 20260901201530 | 26 | 261 | 16.1 | 24.1 | 0.00 | 0.00 | 0.00 | 47 | |
| 20260901201126 | 26 | 258 | 14.5 | 20.9 | 0.00 | 0.00 | 0.00 | 48 | |
| 20260901200924 | 26 | 267 | 9.7 | 20.9 | 0.00 | 0.00 | 0.00 | 47 | |
| 20260901200520 | 26 | 265 | 14.5 | 20.9 | 0.00 | 0.00 | 0.00 | 47 | |
| 20260901200318 | 26 | 250 | 14.5 | 20.9 | 0.00 | 0.00 | 0.00 | 47 | |
| 20260901200116 | 26 | 243 | 6.4 | 20.9 | 0.00 | 0.00 | 0.00 | 48 | |
| 20260901195914 | 26 | 271 | 12.9 | 20.9 | 0.00 | 0.00 | 0.00 | 47 | |
| 20260901195712 | 26 | 240 | 9.7 | 24.1 | 0.00 | 0.00 | 0.00 | 47 | |
| 20260901195510 | 26 | 275 | 14.5 | 24.1 | 0.00 | 0.00 | 0.00 | 48 | |
| 20260901195309 | 26 | 285 | 6.4 | 24.1 | 0.00 | 0.00 | 0.00 | 47 | |
| 20260901195106 | 26 | 275 | 12.9 | 17.7 | 0.00 | 0.00 | 0.00 | 48 | |
| 20260901194904 | 26 | 257 | 17.7 | 17.7 | 0.00 | 0.00 | 0.00 | 47 | |
| 20260901194703 | 26 | 286 | 9.7 | 25.7 | 0.00 | 0.00 | 0.00 | 47 | |
| 20260901194501 | 26 | 275 | 14.5 | 25.7 | 0.00 | 0.00 | 0.00 | 48 | |
| 20260901194259 | 26 | 246 | 14.5 | 25.7 | 0.00 | 0.00 | 0.00 | 47 | |
| 20260901194056 | 26 | 261 | 19.3 | 16.1 | 0.00 | 0.00 | 0.00 | 46 | |
| 20260901193855 | 26 | 264 | 16.1 | 16.1 | 0.00 | 0.00 | 0.00 | 45 | |
| 20260901193047 | 26 | 227 | 4.8 | 22.5 | 0.00 | 0.00 | 0.00 | 47 | |
| 20260901192843 | 26 | 264 | 8.0 | 22.5 | 0.00 | 0.00 | 0.00 | 46 | |
| 20260901192643 | 26 | 260 | 16.1 | 22.5 | 0.00 | 0.00 | 0.00 | 46 | |
| 20260901192441 | 26 | 274 | 9.7 | 22.5 | 0.00 | 0.00 | 0.00 | 46 | |
| 20260901192237 | 26 | 271 | 11.3 | 24.1 | 0.00 | 0.00 | 0.00 | 46 | |
| 20260901192036 | 26 | 258 | 9.7 | 24.1 | 0.00 | 0.00 | 0.00 | 47 | |
| 20260901191836 | 26 | 277 | 6.4 | 24.1 | 0.00 | 0.00 | 0.00 | 47 | |
| 20260901191633 | 25 | 262 | 20.9 | 24.1 | 0.00 | 0.00 | 0.00 | 47 | |
| 20260901191431 | 26 | 271 | 17.7 | 24.1 | 0.00 | 0.00 | 0.00 | 47 | |
| 20260901191228 | 26 | 295 | 9.7 | 19.3 | 0.00 | 0.00 | 0.00 | 46 | |
| 20260901191027 | 26 | 264 | 3.2 | 19.3 | 0.00 | 0.00 | 0.00 | 46 | |
| 20260901190823 | 25 | 257 | 12.9 | 19.3 | 0.00 | 0.00 | 0.00 | 47 | |
| 20260901190422 | 25 | 255 | 14.5 | 14.5 | 0.00 | 0.00 | 0.00 | 48 | |
| 20260901190220 | 25 | 310 | 4.8 | 17.7 | 0.00 | 0.00 | 0.00 | 49 | |
| 20260901190016 | 25 | 271 | 9.7 | 17.7 | 0.00 | 0.00 | 0.00 | 48 | |
| 20260901185816 | 25 | 270 | 8.0 | 17.7 | 0.00 | 0.00 | 0.00 | 48 | |
| 20260901185612 | 25 | 281 | 11.3 | 19.3 | 0.00 | 0.00 | 0.00 | 48 | |
| 20260901185210 | 25 | 260 | 9.7 | 14.5 | 0.00 | 0.00 | 0.00 | 49 | |
| 20260901185008 | 25 | 268 | 17.7 | 14.5 | 0.00 | 0.00 | 0.00 | 49 | |
| 20260901184602 | 25 | 277 | 9.7 | 12.9 | 0.00 | 0.00 | 0.00 | 48 | |
| 20260901184402 | 25 | 271 | 11.3 | 12.9 | 0.00 | 0.00 | 0.00 | 48 | |
| 20260901184159 | 25 | 298 | 4.8 | 16.1 | 0.00 | 0.00 | 0.00 | 50 | |
| 20260901183958 | 25 | 275 | 8.0 | 16.1 | 0.00 | 0.00 | 0.00 | 51 | |
| 20260901183754 | 25 | 236 | 0.0 | 16.1 | 0.00 | 0.00 | 0.00 | 52 | |
| 20260901183554 | 25 | 281 | 11.3 | 17.7 | 0.00 | 0.00 | 0.00 | 52 | |
| 20260901183352 | 25 | 307 | 8.0 | 17.7 | 0.00 | 0.00 | 0.00 | 52 | |
| 20260901183150 | 24 | 281 | 11.3 | 17.7 | 0.00 | 0.00 | 0.00 | 52 | |
| 20260901182948 | 25 | 250 | 9.7 | 17.7 | 0.00 | 0.00 | 0.00 | 54 | |
| 20260901182744 | 25 | 275 | 8.0 | 14.5 | 0.00 | 0.00 | 0.00 | 53 | |
| 20260901182542 | 24 | 270 | 11.3 | 14.5 | 0.00 | 0.00 | 0.00 | 54 | |
| 20260901182342 | 24 | 262 | 16.1 | 14.5 | 0.00 | 0.00 | 0.00 | 53 | |
| 20260901182140 | 24 | 260 | 11.3 | 16.1 | 0.00 | 0.00 | 0.00 | 55 | |
| 20260901181938 | 24 | 241 | 4.8 | 16.1 | 0.00 | 0.00 | 0.00 | 56 | |
| 20260901181737 | 24 | 199 | 0.0 | 17.7 | 0.00 | 0.00 | 0.00 | 56 | |
| 20260901181534 | 24 | 271 | 16.1 | 17.7 | 0.00 | 0.00 | 0.00 | 56 | |
| 20260901181332 | 24 | 255 | 8.0 | 17.7 | 0.00 | 0.00 | 0.00 | 56 | |
| 20260901181130 | 24 | 255 | 11.3 | 16.1 | 0.00 | 0.00 | 0.00 | 56 | |
| 20260901180930 | 24 | 277 | 11.3 | 16.1 | 0.00 | 0.00 | 0.00 | 56 | |
| 20260901180727 | 24 | 262 | 9.7 | 16.1 | 0.00 | 0.00 | 0.00 | 56 | |
| 20260901180524 | 24 | 274 | 8.0 | 16.1 | 0.00 | 0.00 | 0.00 | 56 | |
| 20260901180321 | 24 | 232 | 0.0 | 16.1 | 0.00 | 0.00 | 0.00 | 57 | |
| 20260901175717 | 25 | 277 | 11.3 | 12.9 | 0.00 | 0.00 | 0.00 | 54 | |
| 20260901175515 | 25 | 239 | 1.6 | 12.9 | 0.00 | 0.00 | 0.00 | 54 | |
| 20260901175111 | 25 | 300 | 6.4 | 6.4 | 0.00 | 0.00 | 0.00 | 53 | |
| 20260901174909 | 25 | 125 | 0.0 | 6.4 | 0.00 | 0.00 | 0.00 | 55 | |
| 20260901174710 | 25 | 125 | 0.0 | 8.0 | 0.00 | 0.00 | 0.00 | 54 | |
| 20260901174303 | 24 | 143 | 0.0 | 8.0 | 0.00 | 0.00 | 0.00 | 57 | |
| 20260901174100 | 23 | 191 | 0.0 | 1.6 | 0.00 | 0.00 | 0.00 | 56 | |
| 20260901173859 | 23 | 264 | 3.2 | 1.6 | 0.00 | 0.00 | 0.00 | 59 | |
| 20260901173453 | 23 | 57 | 0.0 | 6.4 | 0.00 | 0.00 | 0.00 | 62 | |
| 20260901173251 | 22 | 213 | 0.0 | 6.4 | 0.00 | 0.00 | 0.00 | 63 | |
| 20260901173051 | 22 | 240 | 1.6 | 4.8 | 0.00 | 0.00 | 0.00 | 63 | |
| 20260901172847 | 22 | 316 | 3.2 | 4.8 | 0.00 | 0.00 | 0.00 | 62 | |
| 20260901172645 | 22 | 296 | 0.0 | 3.2 | 0.00 | 0.00 | 0.00 | 66 | |
| 20260901172241 | 21 | 310 | 0.0 | 8.0 | 0.00 | 0.00 | 0.00 | 69 | |
| 20260901172039 | 21 | 234 | 1.6 | 8.0 | 0.00 | 0.00 | 0.00 | 70 | |
| 20260901171838 | 21 | 198 | 0.0 | 8.0 | 0.00 | 0.00 | 0.00 | 71 | |
| 20260901171635 | 20 | 198 | 0.0 | 11.3 | 0.00 | 0.00 | 0.00 | 72 | |
| 20260901171433 | 20 | 229 | 3.2 | 11.3 | 0.00 | 0.00 | 0.00 | 72 | |
| 20260901171232 | 20 | 237 | 1.6 | 12.9 | 0.00 | 0.00 | 0.00 | 72 | |
| 20260901171225 | 20 | 281 | 9.7 | 12.9 | 0.00 | 0.00 | 0.00 | 73 | |
| 20260901171031 | 20 | 281 | 9.7 | 12.9 | 0.00 | 0.00 | 0.00 | 73 | |
| 20260901170830 | 20 | 307 | 3.2 | 12.9 | 0.00 | 0.00 | 0.00 | 75 | |
| 20260901170425 | 19 | 310 | 3.2 | 11.3 | 0.00 | 0.00 | 0.00 | 76 | |
| 20260901170224 | 19 | 298 | 6.4 | 12.9 | 0.00 | 0.00 | 0.00 | 76 | |
| 20260901165820 | 19 | 284 | 9.7 | 12.9 | 0.00 | 0.00 | 0.00 | 77 | |
| 20260901165414 | 18 | 279 | 11.3 | 12.9 | 0.00 | 0.00 | 0.00 | 77 | |
| 20260901165212 | 18 | 310 | 6.4 | 14.5 | 0.00 | 0.00 | 0.00 | 77 | |
| 20260901164809 | 18 | 278 | 6.4 | 14.5 | 0.00 | 0.00 | 0.00 | 79 | |
| 20260901164607 | 18 | 270 | 11.3 | 14.5 | 0.00 | 0.00 | 0.00 | 78 | |
| 20260901164405 | 18 | 277 | 6.4 | 14.5 | 0.00 | 0.00 | 0.00 | 79 | |
| 20260901164203 | 18 | 292 | 6.4 | 17.7 | 0.00 | 0.00 | 0.00 | 81 | |
| 20260901164001 | 18 | 296 | 6.4 | 17.7 | 0.00 | 0.00 | 0.00 | 82 | |
| 20260901163759 | 17 | 289 | 11.3 | 17.7 | 0.00 | 0.00 | 0.00 | 82 | |
| 20260901163713 | 17 | 258 | 16.1 | 12.9 | 0.00 | 0.00 | 0.00 | 82 | |
| 20260901163557 | 17 | 258 | 16.1 | 12.9 | 0.00 | 0.00 | 0.00 | 82 | |
| 20260901163355 | 17 | 262 | 12.9 | 12.9 | 0.00 | 0.00 | 0.00 | 84 | |
| 20260901163153 | 17 | 271 | 8.0 | 12.9 | 0.00 | 0.00 | 0.00 | 85 | |
| 20260901162952 | 17 | 270 | 8.0 | 12.9 | 0.00 | 0.00 | 0.00 | 86 | |
| 20260901162750 | 17 | 279 | 8.0 | 12.9 | 0.00 | 0.00 | 0.00 | 88 | |
| 20260901162548 | 17 | 277 | 3.2 | 9.7 | 0.00 | 0.00 | 0.00 | 89 | |
| 20260901162346 | 16 | 279 | 4.8 | 9.7 | 0.00 | 0.00 | 0.00 | 91 | |
| 20260901162144 | 16 | 278 | 6.4 | 8.0 | 0.00 | 0.00 | 0.00 | 92 | |
| 20260901161740 | 16 | 253 | 0.0 | 4.8 | 0.00 | 0.00 | 0.00 | 95 | |
| 20260901161538 | 16 | 305 | 3.2 | 4.8 | 0.00 | 0.00 | 0.00 | 95 | |
| 20260901161336 | 16 | 240 | 0.0 | 4.8 | 0.00 | 0.00 | 0.00 | 95 | |
| 20260901161135 | 16 | 240 | 0.0 | 3.2 | 0.00 | 0.00 | 0.00 | 95 | |
| 20260901160933 | 15 | 264 | 0.0 | 3.2 | 0.00 | 0.00 | 0.00 | 96 | |
| 20260901160731 | 15 | 260 | 0.0 | 6.4 | 0.00 | 0.00 | 0.00 | 95 | |
| 20260901160529 | 15 | 272 | 0.0 | 6.4 | 0.00 | 0.00 | 0.00 | 96 | |
| 20260901155923 | 15 | 261 | 0.0 | 3.2 | 0.00 | 0.00 | 0.00 | 96 | |
| 20260901155721 | 15 | 261 | 0.0 | 0.0 | 0.00 | 0.00 | 0.00 | 96 | |
| 20260901155317 | 15 | 111 | 0.0 | 0.0 | 0.00 | 0.00 | 0.00 | 96 | |
| 20260901154914 | 15 | 111 | 0.0 | 4.8 | 0.00 | 0.00 | 0.00 | 96 | |
| 20260901154712 | 15 | 111 | 0.0 | 0.0 | 0.00 | 0.00 | 0.00 | 96 | |
| 20260901154510 | 15 | 64 | 0.0 | 0.0 | 0.00 | 0.00 | 0.00 | 96 | |
| 20260901154106 | 15 | 64 | 0.0 | 4.8 | 0.00 | 0.00 | 0.00 | 96 | |
| 20260901153904 | 15 | 64 | 0.0 | 4.8 | 0.00 | 0.00 | 0.00 | 96 | |
| 20260901153702 | 15 | 64 | 0.0 | 8.0 | 0.00 | 0.00 | 0.00 | 96 | |
| 20260901153056 | 15 | 71 | 0.0 | 0.0 | 0.00 | 0.00 | 0.00 | 96 | |
| 20260901152855 | 15 | 277 | 0.0 | 0.0 | 0.00 | 0.00 | 0.00 | 96 | |
| 20260901152653 | 14 | 277 | 0.0 | 0.0 | 0.00 | 0.00 | 0.00 | 96 | |
| 20260901152451 | 14 | 277 | 0.0 | 0.0 | 0.00 | 0.00 | 0.00 | 96 | |
| 20260901152047 | 14 | 277 | 0.0 | 0.0 | 0.00 | 0.00 | 0.00 | 96 | |
| 20260901151845 | 14 | 277 | 0.0 | 0.0 | 0.00 | 0.00 | 0.00 | 96 | |
| 20260901151643 | 14 | 277 | 0.0 | 0.0 | 0.00 | 0.00 | 0.00 | 96 | |
| 20260901151441 | 14 | 277 | 0.0 | 0.0 | 0.00 | 0.00 | 0.00 | 96 | |
| 20260901151037 | 14 | 277 | 0.0 | 0.0 | 0.00 | 0.00 | 0.00 | 96 | |
| 20260901150836 | 14 | 277 | 0.0 | 0.0 | 0.00 | 0.00 | 0.00 | 96 | |
| 20260901150634 | 14 | 277 | 0.0 | 0.0 | 0.00 | 0.00 | 0.00 | 96 | |
| 20260901150432 | 14 | 277 | 0.0 | 0.0 | 0.00 | 0.00 | 0.00 | 96 | |
| 20260901150230 | 14 | 277 | 0.0 | 0.0 | 0.00 | 0.00 | 0.00 | 96 | |
| 20260901150028 | 14 | 277 | 0.0 | 0.0 | 0.00 | 0.00 | 0.00 | 96 | |
| 20260901145826 | 14 | 277 | 0.0 | 0.0 | 0.00 | 0.00 | 0.00 | 96 | |
| 20260901145624 | 13 | 277 | 0.0 | 6.4 | 0.00 | 0.00 | 0.00 | 96 | |
| 20260901145422 | 13 | 277 | 0.0 | 6.4 | 0.00 | 0.00 | 0.00 | 96 | |
| 20260901145220 | 14 | 277 | 0.0 | 6.4 | 0.00 | 0.00 | 0.00 | 96 | |
| 20260901145018 | 14 | 292 | 4.8 | 6.4 | 0.00 | 0.00 | 0.00 | 96 | |
| 20260901144817 | 13 | 277 | 0.0 | 6.4 | 0.00 | 0.00 | 0.00 | 96 | |
| 20260901144413 | 13 | 292 | 0.0 | 0.0 | 0.00 | 0.00 | 0.00 | 96 | |
| 20260901143807 | 13 | 292 | 0.0 | 6.4 | 0.00 | 0.00 | 0.00 | 96 | |
| 20260901143605 | 14 | 291 | 3.2 | 6.4 | 0.00 | 0.00 | 0.00 | 96 | |
| 20260901142959 | 14 | 289 | 4.8 | 9.7 | 0.00 | 0.00 | 0.00 | 96 | |
| 20260901142758 | 14 | 264 | 4.8 | 9.7 | 0.00 | 0.00 | 0.00 | 96 | |
| 20260901142556 | 14 | 270 | 8.0 | 8.0 | 0.00 | 0.00 | 0.00 | 96 | |
| 20260901142152 | 14 | 255 | 0.0 | 0.0 | 0.00 | 0.00 | 0.00 | 96 | |
| 20260901141748 | 14 | 255 | 0.0 | 0.0 | 0.00 | 0.00 | 0.00 | 96 | |
| 20260901141546 | 14 | 255 | 0.0 | 0.0 | 0.00 | 0.00 | 0.00 | 96 | |
| 20260901141344 | 14 | 255 | 0.0 | 0.0 | 0.00 | 0.00 | 0.00 | 96 | |
| 20260901141142 | 14 | 255 | 0.0 | 1.6 | 0.00 | 0.00 | 0.00 | 96 | |
| 20260901140940 | 14 | 255 | 0.0 | 1.6 | 0.00 | 0.00 | 0.00 | 96 | |
| 20260901140740 | 14 | 255 | 0.0 | 0.0 | 0.00 | 0.00 | 0.00 | 96 | |
| 20260901140335 | 14 | 84 | 0.0 | 0.0 | 0.00 | 0.00 | 0.00 | 96 | |
| 20260901140133 | 14 | 84 | 0.0 | 0.0 | 0.00 | 0.00 | 0.00 | 96 | |
| 20260901135729 | 14 | 84 | 0.0 | 0.0 | 0.00 | 0.00 | 0.00 | 96 | |
| 20260901135529 | 14 | 84 | 0.0 | 0.0 | 0.00 | 0.00 | 0.00 | 96 | |
| 20260901135325 | 14 | 84 | 0.0 | 0.0 | 0.00 | 0.00 | 0.00 | 96 | |
| 20260901135123 | 14 | 84 | 0.0 | 0.0 | 0.00 | 0.00 | 0.00 | 96 | |
| 20260901134921 | 14 | 84 | 0.0 | 0.0 | 0.00 | 0.00 | 0.00 | 96 | |
| 20260901134720 | 13 | 84 | 0.0 | 0.0 | 0.00 | 0.00 | 0.00 | 96 | |
| 20260901134518 | 13 | 84 | 0.0 | 0.0 | 0.00 | 0.00 | 0.00 | 96 | |
| 20260901134316 | 13 | 84 | 0.0 | 0.0 | 0.00 | 0.00 | 0.00 | 96 | |
| 20260901134114 | 13 | 84 | 0.0 | 6.4 | 0.00 | 0.00 | 0.00 | 96 | |
| 20260901133912 | 13 | 84 | 0.0 | 6.4 | 0.00 | 0.00 | 0.00 | 96 | |
| 20260901133710 | 13 | 84 | 0.0 | 6.4 | 0.00 | 0.00 | 0.00 | 96 | |
| 20260901133508 | 13 | 84 | 0.0 | 6.4 | 0.00 | 0.00 | 0.00 | 96 | |
| 20260901133306 | 13 | 60 | 1.6 | 6.4 | 0.00 | 0.00 | 0.00 | 95 | |
| 20260901133104 | 13 | 75 | 1.6 | 0.0 | 0.00 | 0.00 | 0.00 | 96 | |
| 20260901132902 | 13 | 50 | 0.0 | 0.0 | 0.00 | 0.00 | 0.00 | 96 | |
| 20260901132700 | 13 | 50 | 0.0 | 4.8 | 0.00 | 0.00 | 0.00 | 95 | |
| 20260901132459 | 13 | 50 | 0.0 | 4.8 | 0.00 | 0.00 | 0.00 | 95 | |
| 20260901132257 | 13 | 50 | 0.0 | 4.8 | 0.00 | 0.00 | 0.00 | 95 | |
| 20260901132055 | 13 | 63 | 0.0 | 6.4 | 0.00 | 0.00 | 0.00 | 95 | |
| 20260901131853 | 13 | 75 | 0.0 | 6.4 | 0.00 | 0.00 | 0.00 | 95 | |
| 20260901131651 | 13 | 94 | 1.6 | 1.6 | 0.00 | 0.00 | 0.00 | 95 | |
| 20260901131247 | 13 | 45 | 0.0 | 1.6 | 0.00 | 0.00 | 0.00 | 95 | |
| 20260901131045 | 13 | 281 | 0.0 | 0.0 | 0.00 | 0.00 | 0.00 | 95 | |
| 20260901130843 | 13 | 281 | 0.0 | 0.0 | 0.00 | 0.00 | 0.00 | 95 | |
| 20260901130641 | 13 | 281 | 0.0 | 0.0 | 0.00 | 0.00 | 0.00 | 95 | |
| 20260901130439 | 13 | 281 | 0.0 | 0.0 | 0.00 | 0.00 | 0.00 | 95 | |
| 20260901130238 | 13 | 281 | 0.0 | 0.0 | 0.00 | 0.00 | 0.00 | 95 | |
| 20260901130036 | 13 | 281 | 0.0 | 0.0 | 0.00 | 0.00 | 0.00 | 95 | |
| 20260901125834 | 13 | 281 | 0.0 | 0.0 | 0.00 | 0.00 | 0.00 | 95 | |
| 20260901125632 | 13 | 281 | 0.0 | 0.0 | 0.00 | 0.00 | 0.00 | 95 | |
| 20260901125430 | 13 | 281 | 0.0 | 0.0 | 0.00 | 0.00 | 0.00 | 95 | |
| 20260901125026 | 13 | 281 | 0.0 | 0.0 | 0.00 | 0.00 | 0.00 | 95 | |
| 20260901124824 | 13 | 281 | 0.0 | 0.0 | 0.00 | 0.00 | 0.00 | 95 | |
| 20260901124622 | 13 | 281 | 0.0 | 0.0 | 0.00 | 0.00 | 0.00 | 95 | |
| 20260901124420 | 13 | 281 | 0.0 | 0.0 | 0.00 | 0.00 | 0.00 | 95 | |
| 20260901124218 | 13 | 281 | 0.0 | 0.0 | 0.00 | 0.00 | 0.00 | 95 | |
| 20260901124017 | 13 | 281 | 0.0 | 0.0 | 0.00 | 0.00 | 0.00 | 95 | |
| 20260901123815 | 13 | 281 | 0.0 | 0.0 | 0.00 | 0.00 | 0.00 | 96 | |
| 20260901123613 | 13 | 281 | 0.0 | 0.0 | 0.00 | 0.00 | 0.00 | 96 | |
| 20260901123411 | 13 | 281 | 0.0 | 0.0 | 0.00 | 0.00 | 0.00 | 96 | |
| 20260901123209 | 13 | 281 | 0.0 | 0.0 | 0.00 | 0.00 | 0.00 | 95 | |
| 20260901123007 | 13 | 281 | 0.0 | 0.0 | 0.00 | 0.00 | 0.00 | 95 | |
| 20260901122805 | 12 | 281 | 0.0 | 0.0 | 0.00 | 0.00 | 0.00 | 95 | |
| 20260901122603 | 12 | 281 | 0.0 | 0.0 | 0.00 | 0.00 | 0.00 | 95 | |
| 20260901122401 | 12 | 281 | 0.0 | 0.0 | 0.00 | 0.00 | 0.00 | 95 | |
| 20260901122159 | 12 | 281 | 0.0 | 0.0 | 0.00 | 0.00 | 0.00 | 95 | |
| 20260901121959 | 13 | 281 | 0.0 | 0.0 | 0.00 | 0.00 | 0.00 | 95 | |
| 20260901121756 | 13 | 281 | 0.0 | 0.0 | 0.00 | 0.00 | 0.00 | 95 | |
| 20260901121554 | 12 | 281 | 0.0 | 0.0 | 0.00 | 0.00 | 0.00 | 95 | |
| 20260901121352 | 13 | 281 | 0.0 | 0.0 | 0.00 | 0.00 | 0.00 | 95 | |
| 20260901121150 | 13 | 281 | 0.0 | 0.0 | 0.00 | 0.00 | 0.00 | 95 | |
| 20260901120948 | 13 | 281 | 0.0 | 0.0 | 0.00 | 0.00 | 0.00 | 95 | |
| 20260901120746 | 13 | 281 | 0.0 | 0.0 | 0.00 | 0.00 | 0.00 | 95 | |
| 20260901120544 | 13 | 281 | 0.0 | 0.0 | 0.00 | 0.00 | 0.00 | 95 | |
| 20260901120342 | 13 | 281 | 0.0 | 0.0 | 0.00 | 0.00 | 0.00 | 95 | |
| 20260901115737 | 13 | 281 | 0.0 | 4.8 | 0.00 | 0.00 | 0.00 | 95 | |
| 20260901115333 | 13 | 281 | 0.0 | 4.8 | 0.00 | 0.00 | 0.00 | 95 | |
| 20260901115131 | 13 | 281 | 0.0 | 6.4 | 0.00 | 0.00 | 0.00 | 95 | |
| 20260901114929 | 13 | 298 | 1.6 | 6.4 | 0.00 | 0.00 | 0.00 | 95 | |
| 20260901114727 | 13 | 305 | 3.2 | 3.2 | 0.00 | 0.00 | 0.00 | 95 | |
| 20260901114525 | 13 | 282 | 3.2 | 3.2 | 0.00 | 0.00 | 0.00 | 95 | |
| 20260901114323 | 13 | 296 | 1.6 | 3.2 | 0.00 | 0.00 | 0.00 | 95 | |
| 20260901114121 | 13 | 296 | 0.0 | 6.4 | 0.00 | 0.00 | 0.00 | 95 | |
| 20260901113920 | 13 | 296 | 0.0 | 6.4 | 0.00 | 0.00 | 0.00 | 95 | |
| 20260901113718 | 13 | 298 | 3.2 | 11.3 | 0.00 | 0.00 | 0.00 | 95 | |
| 20260901113516 | 13 | 293 | 1.6 | 11.3 | 0.00 | 0.00 | 0.00 | 95 | |
| 20260901113314 | 13 | 309 | 0.0 | 11.3 | 0.00 | 0.00 | 0.00 | 95 | |
| 20260901113112 | 13 | 288 | 9.7 | 8.0 | 0.00 | 0.00 | 0.00 | 95 | |
| 20260901112910 | 13 | 302 | 4.8 | 8.0 | 0.00 | 0.00 | 0.00 | 95 | |
| 20260901112708 | 13 | 303 | 6.4 | 8.0 | 0.00 | 0.00 | 0.00 | 96 | |
| 20260901112506 | 13 | 303 | 4.8 | 8.0 | 0.00 | 0.00 | 0.00 | 95 | |
| 20260901112306 | 13 | 312 | 3.2 | 8.0 | 0.00 | 0.00 | 0.00 | 95 | |
| 20260901112102 | 13 | 319 | 4.8 | 6.4 | 0.00 | 0.00 | 0.00 | 95 | |
| 20260901111900 | 13 | 293 | 6.4 | 6.4 | 0.00 | 0.00 | 0.00 | 95 | |
| 20260901111659 | 13 | 293 | 6.4 | 8.0 | 0.00 | 0.00 | 0.00 | 95 | |
| 20260901111457 | 13 | 285 | 4.8 | 8.0 | 0.00 | 0.00 | 0.00 | 95 | |
| 20260901111255 | 13 | 277 | 4.8 | 8.0 | 0.00 | 0.00 | 0.00 | 95 | |
| 20260901110851 | 13 | 298 | 6.4 | 6.4 | 0.00 | 0.00 | 0.00 | 95 | |
| 20260901110649 | 13 | 302 | 6.4 | 6.4 | 0.00 | 0.00 | 0.00 | 94 | |
| 20260901110447 | 13 | 285 | 6.4 | 6.4 | 0.00 | 0.00 | 0.00 | 93 | |
| 20260901110245 | 13 | 289 | 4.8 | 0.0 | 0.00 | 0.00 | 0.00 | 93 | |
| 20260901110043 | 13 | 278 | 6.4 | 0.0 | 0.00 | 0.00 | 0.00 | 93 | |
| 20260901105841 | 13 | 26 | 0.0 | 0.0 | 0.00 | 0.00 | 0.00 | 94 | |
| 20260901105641 | 13 | 26 | 0.0 | 0.0 | 0.00 | 0.00 | 0.00 | 94 | |
| 20260901105236 | 13 | 26 | 0.0 | 0.0 | 0.00 | 0.00 | 0.00 | 93 | |
| 20260901105034 | 13 | 26 | 0.0 | 0.0 | 0.00 | 0.00 | 0.00 | 93 | |
| 20260901104832 | 13 | 26 | 0.0 | 0.0 | 0.00 | 0.00 | 0.00 | 93 | |
| 20260901104630 | 13 | 26 | 0.0 | 0.0 | 0.00 | 0.00 | 0.00 | 93 | |
| 20260901104428 | 13 | 26 | 0.0 | 0.0 | 0.00 | 0.00 | 0.00 | 93 | |
| 20260901104228 | 13 | 26 | 0.0 | 0.0 | 0.00 | 0.00 | 0.00 | 93 | |
| 20260901104024 | 13 | 26 | 0.0 | 0.0 | 0.00 | 0.00 | 0.00 | 93 | |
| 20260901103822 | 13 | 26 | 0.0 | 0.0 | 0.00 | 0.00 | 0.00 | 93 | |
| 20260901103622 | 13 | 26 | 0.0 | 0.0 | 0.00 | 0.00 | 0.00 | 93 | |
| 20260901103419 | 13 | 26 | 0.0 | 0.0 | 0.00 | 0.00 | 0.00 | 93 | |
| 20260901103217 | 13 | 26 | 0.0 | 0.0 | 0.00 | 0.00 | 0.00 | 93 | |
| 20260901103015 | 13 | 26 | 0.0 | 0.0 | 0.00 | 0.00 | 0.00 | 93 | |
| 20260901102813 | 13 | 26 | 0.0 | 0.0 | 0.00 | 0.00 | 0.00 | 93 | |
| 20260901102611 | 13 | 26 | 0.0 | 1.6 | 0.00 | 0.00 | 0.00 | 93 | |
| 20260901102409 | 13 | 26 | 0.0 | 1.6 | 0.00 | 0.00 | 0.00 | 93 | |
| 20260901102207 | 13 | 26 | 0.0 | 0.0 | 0.00 | 0.00 | 0.00 | 93 | |
| 20260901102005 | 13 | 49 | 0.0 | 0.0 | 0.00 | 0.00 | 0.00 | 93 | |
| 20260901101803 | 13 | 64 | 0.0 | 0.0 | 0.00 | 0.00 | 0.00 | 93 | |
| 20260901101400 | 13 | 64 | 0.0 | 0.0 | 0.00 | 0.00 | 0.00 | 93 | |
| 20260901101158 | 13 | 64 | 0.0 | 1.6 | 0.00 | 0.00 | 0.00 | 93 | |
| 20260901100956 | 13 | 64 | 0.0 | 1.6 | 0.00 | 0.00 | 0.00 | 93 | |
| 20260901100754 | 13 | 64 | 0.0 | 1.6 | 0.00 | 0.00 | 0.00 | 92 | |
| 20260901100554 | 13 | 64 | 0.0 | 0.0 | 0.00 | 0.00 | 0.00 | 92 | |
| 20260901100350 | 13 | 300 | 0.0 | 0.0 | 0.00 | 0.00 | 0.00 | 92 | |
| 20260901100148 | 13 | 300 | 0.0 | 0.0 | 0.00 | 0.00 | 0.00 | 92 | |
| 20260901095946 | 13 | 300 | 0.0 | 0.0 | 0.00 | 0.00 | 0.00 | 93 | |
| 20260901095744 | 13 | 300 | 0.0 | 0.0 | 0.00 | 0.00 | 0.00 | 92 | |
| 20260901095544 | 13 | 300 | 0.0 | 0.0 | 0.00 | 0.00 | 0.00 | 92 | |
| 20260901095341 | 13 | 300 | 0.0 | 0.0 | 0.00 | 0.00 | 0.00 | 92 | |
| 20260901095139 | 13 | 300 | 0.0 | 0.0 | 0.00 | 0.00 | 0.00 | 92 | |
| 20260901094937 | 13 | 300 | 0.0 | 0.0 | 0.00 | 0.00 | 0.00 | 91 | |
| 20260901094735 | 13 | 300 | 0.0 | 0.0 | 0.00 | 0.00 | 0.00 | 91 | |
| 20260901094533 | 13 | 300 | 0.0 | 0.0 | 0.00 | 0.00 | 0.00 | 91 | |
| 20260901094331 | 13 | 300 | 0.0 | 0.0 | 0.00 | 0.00 | 0.00 | 92 | |
| 20260901094129 | 13 | 300 | 0.0 | 0.0 | 0.00 | 0.00 | 0.00 | 92 | |
| 20260901093927 | 13 | 300 | 0.0 | 0.0 | 0.00 | 0.00 | 0.00 | 92 | |
| 20260901093725 | 13 | 300 | 0.0 | 0.0 | 0.00 | 0.00 | 0.00 | 92 | |
| 20260901093523 | 13 | 300 | 0.0 | 0.0 | 0.00 | 0.00 | 0.00 | 92 | |
| 20260901093324 | 13 | 300 | 0.0 | 0.0 | 0.00 | 0.00 | 0.00 | 92 | |
| 20260901093120 | 13 | 300 | 0.0 | 0.0 | 0.00 | 0.00 | 0.00 | 92 | |
| 20260901092918 | 13 | 300 | 0.0 | 0.0 | 0.00 | 0.00 | 0.00 | 92 | |
| 20260901092716 | 13 | 300 | 0.0 | 0.0 | 0.00 | 0.00 | 0.00 | 92 | |
| 20260901092514 | 13 | 300 | 0.0 | 0.0 | 0.00 | 0.00 | 0.00 | 92 | |
| 20260901092312 | 13 | 300 | 0.0 | 0.0 | 0.00 | 0.00 | 0.00 | 92 | |
| 20260901092110 | 13 | 300 | 0.0 | 0.0 | 0.00 | 0.00 | 0.00 | 92 | |
| 20260901091909 | 13 | 300 | 0.0 | 0.0 | 0.00 | 0.00 | 0.00 | 91 | |
| 20260901091706 | 13 | 300 | 0.0 | 0.0 | 0.00 | 0.00 | 0.00 | 91 | |
| 20260901091302 | 13 | 300 | 0.0 | 0.0 | 0.00 | 0.00 | 0.00 | 91 | |
| 20260901091101 | 13 | 300 | 0.0 | 0.0 | 0.00 | 0.00 | 0.00 | 91 | |
| 20260901090859 | 13 | 300 | 0.0 | 0.0 | 0.00 | 0.00 | 0.00 | 91 | |
| 20260901090657 | 13 | 300 | 0.0 | 0.0 | 0.00 | 0.00 | 0.00 | 91 | |
| 20260901090455 | 13 | 300 | 0.0 | 0.0 | 0.00 | 0.00 | 0.00 | 91 | |
| 20260901090253 | 13 | 300 | 0.0 | 0.0 | 0.00 | 0.00 | 0.00 | 91 | |
| 20260901090051 | 13 | 300 | 0.0 | 0.0 | 0.00 | 0.00 | 0.00 | 91 | |
| 20260901085849 | 13 | 300 | 0.0 | 0.0 | 0.00 | 0.00 | 0.00 | 91 | |
| 20260901085647 | 13 | 300 | 0.0 | 0.0 | 0.00 | 0.00 | 0.00 | 91 | |
| 20260901085445 | 13 | 300 | 0.0 | 0.0 | 0.00 | 0.00 | 0.00 | 91 | |
| 20260901085243 | 13 | 300 | 0.0 | 0.0 | 0.00 | 0.00 | 0.00 | 91 | |
| 20260901085041 | 13 | 300 | 0.0 | 0.0 | 0.00 | 0.00 | 0.00 | 91 | |
| 20260901084840 | 13 | 300 | 0.0 | 0.0 | 0.00 | 0.00 | 0.00 | 91 | |
| 20260901084638 | 13 | 300 | 0.0 | 0.0 | 0.00 | 0.00 | 0.00 | 91 | |
| 20260901084436 | 13 | 300 | 0.0 | 0.0 | 0.00 | 0.00 | 0.00 | 91 | |
| 20260901084234 | 13 | 300 | 0.0 | 3.2 | 0.00 | 0.00 | 0.00 | 91 | |
| 20260901084032 | 13 | 300 | 0.0 | 3.2 | 0.00 | 0.00 | 0.00 | 91 | |
| 20260901083830 | 13 | 300 | 0.0 | 3.2 | 0.00 | 0.00 | 0.00 | 91 | |
| 20260901083628 | 13 | 309 | 1.6 | 3.2 | 0.00 | 0.00 | 0.00 | 91 | |
| 20260901083426 | 13 | 316 | 1.6 | 3.2 | 0.00 | 0.00 | 0.00 | 91 | |
| 20260901083224 | 13 | 312 | 3.2 | 0.0 | 0.00 | 0.00 | 0.00 | 91 | |
| 20260901083022 | 13 | 272 | 0.0 | 0.0 | 0.00 | 0.00 | 0.00 | 91 | |
| 20260901082619 | 13 | 272 | 0.0 | 0.0 | 0.00 | 0.00 | 0.00 | 90 | |
| 20260901082417 | 13 | 272 | 0.0 | 0.0 | 0.00 | 0.00 | 0.00 | 90 | |
| 20260901082215 | 14 | 272 | 0.0 | 0.0 | 0.00 | 0.00 | 0.00 | 90 | |
| 20260901081811 | 14 | 272 | 0.0 | 0.0 | 0.00 | 0.00 | 0.00 | 90 | |
| 20260901081609 | 14 | 272 | 0.0 | 0.0 | 0.00 | 0.00 | 0.00 | 91 | |
| 20260901081407 | 14 | 272 | 0.0 | 0.0 | 0.00 | 0.00 | 0.00 | 91 | |
| 20260901081003 | 14 | 272 | 0.0 | 0.0 | 0.00 | 0.00 | 0.00 | 91 | |
| 20260901080803 | 14 | 272 | 0.0 | 0.0 | 0.00 | 0.00 | 0.00 | 91 | |
| 20260901080600 | 14 | 272 | 0.0 | 0.0 | 0.00 | 0.00 | 0.00 | 91 | |
| 20260901080358 | 14 | 272 | 0.0 | 0.0 | 0.00 | 0.00 | 0.00 | 90 | |
| 20260901075954 | 14 | 272 | 0.0 | 0.0 | 0.00 | 0.00 | 0.00 | 90 | |
| 20260901075752 | 14 | 272 | 0.0 | 0.0 | 0.00 | 0.00 | 0.00 | 90 | |
| 20260901075550 | 14 | 272 | 0.0 | 0.0 | 0.00 | 0.00 | 0.00 | 90 | |
| 20260901075348 | 13 | 272 | 0.0 | 0.0 | 0.00 | 0.00 | 0.00 | 90 | |
| 20260901075148 | 13 | 272 | 0.0 | 0.0 | 0.00 | 0.00 | 0.00 | 90 | |
| 20260901074944 | 13 | 272 | 0.0 | 0.0 | 0.00 | 0.00 | 0.00 | 90 | |
| 20260901074744 | 13 | 272 | 0.0 | 0.0 | 0.00 | 0.00 | 0.00 | 90 | |
| 20260901074542 | 13 | 272 | 0.0 | 0.0 | 0.00 | 0.00 | 0.00 | 90 | |
| 20260901074340 | 13 | 272 | 0.0 | 0.0 | 0.00 | 0.00 | 0.00 | 89 | |
| 20260901074138 | 13 | 272 | 0.0 | 0.0 | 0.00 | 0.00 | 0.00 | 89 | |
| 20260901073733 | 14 | 272 | 0.0 | 0.0 | 0.00 | 0.00 | 0.00 | 89 | |
| 20260901073533 | 14 | 272 | 0.0 | 0.0 | 0.00 | 0.00 | 0.00 | 89 | |
| 20260901073329 | 14 | 272 | 0.0 | 0.0 | 0.00 | 0.00 | 0.00 | 89 | |
| 20260901073127 | 14 | 272 | 0.0 | 0.0 | 0.00 | 0.00 | 0.00 | 89 | |
| 20260901072925 | 14 | 272 | 0.0 | 0.0 | 0.00 | 0.00 | 0.00 | 89 | |
| 20260901072723 | 14 | 272 | 0.0 | 0.0 | 0.00 | 0.00 | 0.00 | 89 | |
| 20260901072521 | 14 | 272 | 0.0 | 0.0 | 0.00 | 0.00 | 0.00 | 89 | |
| 20260901072320 | 14 | 272 | 0.0 | 0.0 | 0.00 | 0.00 | 0.00 | 89 | |
| 20260901072118 | 15 | 272 | 0.0 | 0.0 | 0.00 | 0.00 | 0.00 | 89 | |
| 20260901071916 | 15 | 272 | 0.0 | 0.0 | 0.00 | 0.00 | 0.00 | 90 | |
| 20260901071714 | 15 | 272 | 0.0 | 0.0 | 0.00 | 0.00 | 0.00 | 89 | |
| 20260901071512 | 15 | 272 | 0.0 | 0.0 | 0.00 | 0.00 | 0.00 | 89 | |
| 20260901071310 | 15 | 272 | 0.0 | 0.0 | 0.00 | 0.00 | 0.00 | 89 | |
| 20260901071108 | 15 | 272 | 0.0 | 0.0 | 0.00 | 0.00 | 0.00 | 89 | |
| 20260901070906 | 15 | 272 | 0.0 | 0.0 | 0.00 | 0.00 | 0.00 | 89 | |
| 20260901070704 | 15 | 272 | 0.0 | 0.0 | 0.00 | 0.00 | 0.00 | 89 | |
| 20260901070301 | 15 | 272 | 0.0 | 0.0 | 0.00 | 0.00 | 0.00 | 89 | |
| 20260901070059 | 15 | 272 | 0.0 | 0.0 | 0.00 | 0.00 | 0.00 | 89 | |
| 20260901065655 | 15 | 272 | 0.0 | 0.0 | 0.00 | 0.00 | 0.00 | 88 | |
| 20260901065453 | 15 | 272 | 0.0 | 0.0 | 0.00 | 0.00 | 0.00 | 88 | |
| 20260901065251 | 15 | 272 | 0.0 | 0.0 | 0.00 | 0.00 | 0.00 | 88 | |
| 20260901065051 | 15 | 272 | 0.0 | 0.0 | 0.00 | 0.00 | 0.00 | 88 | |
| 20260901064847 | 15 | 272 | 0.0 | 0.0 | 0.00 | 0.00 | 0.00 | 88 | |
| 20260901064645 | 15 | 272 | 0.0 | 0.0 | 0.00 | 0.00 | 0.00 | 88 | |
| 20260901064443 | 15 | 272 | 0.0 | 0.0 | 0.00 | 0.00 | 0.00 | 88 | |
| 20260901064242 | 15 | 272 | 0.0 | 0.0 | 0.00 | 0.00 | 0.00 | 88 | |
| 20260901064040 | 15 | 272 | 0.0 | 0.0 | 0.00 | 0.00 | 0.00 | 88 | |
| 20260901063838 | 15 | 272 | 0.0 | 0.0 | 0.00 | 0.00 | 0.00 | 88 | |
| 20260901063636 | 15 | 272 | 0.0 | 0.0 | 0.00 | 0.00 | 0.00 | 88 | |
| 20260901063434 | 15 | 272 | 0.0 | 0.0 | 0.00 | 0.00 | 0.00 | 88 | |
| 20260901063232 | 15 | 272 | 0.0 | 0.0 | 0.00 | 0.00 | 0.00 | 88 | |
| 20260901063030 | 15 | 272 | 0.0 | 0.0 | 0.00 | 0.00 | 0.00 | 88 | |
| 20260901062828 | 15 | 272 | 0.0 | 0.0 | 0.00 | 0.00 | 0.00 | 88 | |
| 20260901062626 | 15 | 272 | 0.0 | 0.0 | 0.00 | 0.00 | 0.00 | 88 | |
| 20260901062424 | 15 | 272 | 0.0 | 0.0 | 0.00 | 0.00 | 0.00 | 88 | |
| 20260901062222 | 15 | 272 | 0.0 | 0.0 | 0.00 | 0.00 | 0.00 | 87 | |
| 20260901062021 | 15 | 272 | 0.0 | 0.0 | 0.00 | 0.00 | 0.00 | 87 | |
| 20260901061617 | 15 | 272 | 0.0 | 0.0 | 0.00 | 0.00 | 0.00 | 87 | |
| 20260901061417 | 15 | 272 | 0.0 | 0.0 | 0.00 | 0.00 | 0.00 | 87 | |
| 20260901061213 | 15 | 272 | 0.0 | 0.0 | 0.00 | 0.00 | 0.00 | 87 | |
| 20260901061011 | 15 | 272 | 0.0 | 0.0 | 0.00 | 0.00 | 0.00 | 87 | |
| 20260901060809 | 15 | 272 | 0.0 | 0.0 | 0.00 | 0.00 | 0.00 | 87 | |
| 20260901060609 | 15 | 272 | 0.0 | 0.0 | 0.00 | 0.00 | 0.00 | 87 | |
| 20260901060405 | 15 | 272 | 0.0 | 0.0 | 0.00 | 0.00 | 0.00 | 87 | |
| 20260901060203 | 15 | 272 | 0.0 | 0.0 | 0.00 | 0.00 | 0.00 | 87 | |
| 20260901055800 | 15 | 272 | 0.0 | 0.0 | 0.00 | 0.00 | 0.00 | 87 | |
| 20260901055558 | 15 | 272 | 0.0 | 0.0 | 0.00 | 0.00 | 0.00 | 87 | |
| 20260901055357 | 15 | 272 | 0.0 | 0.0 | 0.00 | 0.00 | 0.00 | 86 | |
| 20260901055158 | 15 | 272 | 0.0 | 0.0 | 0.00 | 0.00 | 0.00 | 86 | |
| 20260901054952 | 15 | 272 | 0.0 | 0.0 | 0.00 | 0.00 | 0.00 | 86 | |
| 20260901054750 | 16 | 272 | 0.0 | 0.0 | 0.00 | 0.00 | 0.00 | 86 | |
| 20260901054548 | 16 | 272 | 0.0 | 0.0 | 0.00 | 0.00 | 0.00 | 86 | |
| 20260901054346 | 16 | 272 | 0.0 | 0.0 | 0.00 | 0.00 | 0.00 | 85 | |
| 20260901054144 | 16 | 272 | 0.0 | 0.0 | 0.00 | 0.00 | 0.00 | 85 | |
| 20260901053942 | 16 | 272 | 0.0 | 0.0 | 0.00 | 0.00 | 0.00 | 85 | |
| 20260901053741 | 16 | 272 | 0.0 | 0.0 | 0.00 | 0.00 | 0.00 | 85 | |
| 20260901053337 | 16 | 272 | 0.0 | 0.0 | 0.00 | 0.00 | 0.00 | 85 | |
| 20260901052933 | 16 | 272 | 0.0 | 0.0 | 0.00 | 0.00 | 0.00 | 85 | |
| 20260901052731 | 16 | 272 | 0.0 | 0.0 | 0.00 | 0.00 | 0.00 | 85 | |
| 20260901052529 | 16 | 272 | 0.0 | 0.0 | 0.00 | 0.00 | 0.00 | 85 | |
| 20260901052327 | 16 | 272 | 0.0 | 0.0 | 0.00 | 0.00 | 0.00 | 85 | |
| 20260901052125 | 16 | 272 | 0.0 | 0.0 | 0.00 | 0.00 | 0.00 | 85 | |
| 20260901051923 | 16 | 272 | 0.0 | 0.0 | 0.00 | 0.00 | 0.00 | 84 | |
| 20260901051721 | 16 | 272 | 0.0 | 0.0 | 0.00 | 0.00 | 0.00 | 84 | |
| 20260901051520 | 16 | 272 | 0.0 | 0.0 | 0.00 | 0.00 | 0.00 | 84 | |
| 20260901051318 | 16 | 272 | 0.0 | 0.0 | 0.00 | 0.00 | 0.00 | 84 | |
| 20260901051116 | 16 | 272 | 0.0 | 0.0 | 0.00 | 0.00 | 0.00 | 83 | |
| 20260901050914 | 17 | 272 | 0.0 | 0.0 | 0.00 | 0.00 | 0.00 | 83 | |
| 20260901050712 | 17 | 272 | 0.0 | 0.0 | 0.00 | 0.00 | 0.00 | 83 | |
| 20260901050510 | 17 | 272 | 0.0 | 0.0 | 0.00 | 0.00 | 0.00 | 83 | |
| 20260901050308 | 17 | 272 | 0.0 | 0.0 | 0.00 | 0.00 | 0.00 | 83 | |
| 20260901050106 | 17 | 272 | 0.0 | 0.0 | 0.00 | 0.00 | 0.00 | 83 | |
| 20260901045904 | 17 | 272 | 0.0 | 0.0 | 0.00 | 0.00 | 0.00 | 83 | |
| 20260901045702 | 17 | 272 | 0.0 | 0.0 | 0.00 | 0.00 | 0.00 | 84 | |
| 20260901045500 | 17 | 272 | 0.0 | 0.0 | 0.00 | 0.00 | 0.00 | 83 | |
| 20260901045259 | 17 | 272 | 0.0 | 0.0 | 0.00 | 0.00 | 0.00 | 84 | |
| 20260901045057 | 17 | 272 | 0.0 | 0.0 | 0.00 | 0.00 | 0.00 | 83 | |
| 20260901044855 | 17 | 272 | 0.0 | 0.0 | 0.00 | 0.00 | 0.00 | 83 | |
| 20260901044653 | 17 | 272 | 0.0 | 1.6 | 0.00 | 0.00 | 0.00 | 83 | |
| 20260901044451 | 17 | 272 | 0.0 | 1.6 | 0.00 | 0.00 | 0.00 | 83 | |
| 20260901044249 | 17 | 272 | 0.0 | 1.6 | 0.00 | 0.00 | 0.00 | 83 | |
| 20260901044047 | 17 | 272 | 0.0 | 4.8 | 0.00 | 0.00 | 0.00 | 82 | |
| 20260901043845 | 17 | 272 | 0.0 | 4.8 | 0.00 | 0.00 | 0.00 | 82 | |
| 20260901043643 | 17 | 286 | 3.2 | 0.0 | 0.00 | 0.00 | 0.00 | 82 | |
| 20260901043442 | 17 | 271 | 0.0 | 0.0 | 0.00 | 0.00 | 0.00 | 82 | |
| 20260901043240 | 17 | 271 | 0.0 | 0.0 | 0.00 | 0.00 | 0.00 | 81 | |
| 20260901043038 | 17 | 271 | 0.0 | 0.0 | 0.00 | 0.00 | 0.00 | 80 | |
| 20260901042636 | 17 | 271 | 0.0 | 0.0 | 0.00 | 0.00 | 0.00 | 80 | |
| 20260901042432 | 18 | 271 | 0.0 | 0.0 | 0.00 | 0.00 | 0.00 | 80 | |
| 20260901042230 | 18 | 271 | 0.0 | 1.6 | 0.00 | 0.00 | 0.00 | 79 | |
| 20260901042028 | 18 | 271 | 0.0 | 1.6 | 0.00 | 0.00 | 0.00 | 79 | |
| 20260901041826 | 18 | 271 | 0.0 | 1.6 | 0.00 | 0.00 | 0.00 | 79 | |
| 20260901041221 | 18 | 278 | 3.2 | 0.0 | 0.00 | 0.00 | 0.00 | 79 | |
| 20260901041019 | 18 | 278 | 0.0 | 0.0 | 0.00 | 0.00 | 0.00 | 79 | |
| 20260901040817 | 18 | 278 | 0.0 | 0.0 | 0.00 | 0.00 | 0.00 | 78 | |
| 20260901040615 | 18 | 278 | 0.0 | 0.0 | 0.00 | 0.00 | 0.00 | 78 | |
| 20260901040413 | 18 | 278 | 0.0 | 0.0 | 0.00 | 0.00 | 0.00 | 78 | |
| 20260901040211 | 18 | 278 | 0.0 | 0.0 | 0.00 | 0.00 | 0.00 | 78 | |
| 20260901040009 | 18 | 278 | 0.0 | 0.0 | 0.00 | 0.00 | 0.00 | 78 | |
| 20260901035807 | 18 | 278 | 0.0 | 0.0 | 0.00 | 0.00 | 0.00 | 77 |